• Processing (Info)

  • MPEC 1998-K37 : 1998 KK17

    The following Minor Planet Electronic Circular may be linked-to from your own Web pages, but must not otherwise be redistributed electronically.

    A form allowing access to any MPEC is at the bottom of this page.


    Read MPEC 1998-K36 Read MPEC 1998-L01


    M.P.E.C. 1998-K37                                Issued 1998 May 31, 15:08 UT
    
         The Minor Planet Electronic Circulars contain information on unusual
             minor planets and routine data on comets.  They are published
       on behalf of Commission 20 of the International Astronomical Union by the
              Minor Planet Center, Smithsonian Astrophysical Observatory,
                              Cambridge, MA 02138, U.S.A.
    
                 BMARSDEN@CFA.HARVARD.EDU or GWILLIAMS@CFA.HARVARD.EDU
                       URL http://cfa-www.harvard.edu/iau/mpc.html
    
                                       1998 KK17
    
    Observations:
         J98K17K* C1998 05 29.17902 13 13 47.55 +24 11 01.5          17.9        704
         J98K17K  C1998 05 29.19864 13 13 49.85 +24 10 10.0                      704
         J98K17K  C1998 05 29.21828 13 13 52.09 +24 09 18.1          17.7        704
         J98K17K  C1998 05 29.23781 13 13 54.37 +24 08 26.2          17.9        704
         J98K17K  C1998 05 29.25730 13 13 56.62 +24 07 34.6          17.5        704
         J98K17K  C1998 05 29.87047 13 15 10.83 +23 40 39.1                      046
         J98K17K  C1998 05 29.87175 13 15 10.96 +23 40 35.7                      046
         J98K17K  C1998 05 29.87303 13 15 11.32 +23 40 33.6                      046
         J98K17K  C1998 05 29.87446 13 15 11.27 +23 40 28.7                      046
         J98K17K  C1998 05 29.87593 13 15 11.45 +23 40 24.8          16.9 V      046
         J98K17K  C1998 05 29.91793 13 15 16.32 +23 38 34.4                      557
         J98K17K  C1998 05 29.92446 13 15 17.03 +23 38 17.6                      557
         J98K17K  C1998 05 29.92609 13 15 17.24 +23 38 13.1          17.4 V      557
         J98K17K  C1998 05 30.15921 13 15 45.39 +23 28 14.4                      711
         J98K17K  C1998 05 30.16372 13 15 45.90 +23 28 02.8                      711
         J98K17K  C1998 05 30.16825 13 15 46.41 +23 27 51.1                      711
         J98K17K  C1998 05 30.18559 13 15 48.58 +23 27 05.5                      670
         J98K17K SC1998 05 30.19531 13 15 49.67 +23 26 39.5                      670
         J98K17K  C1998 05 30.20226 13 15 50.47 +23 26 22.3          16.9 V      670
         J98K17K  C1998 05 30.21511 13 15 51.86 +23 25 49.2                      670
         J98K17K  C1998 05 30.22374 13 15 52.54 +23 25 23.8                      734
         J98K17K  C1998 05 30.23267 13 15 53.63 +23 25 00.4                      734
         J98K17K  C1998 05 30.23611 13 15 53.95 +23 24 51.1                      734
         J98K17K  C1998 05 30.40687 13 16 14.96 +23 17 51.0          17.4 R      422
         J98K17K  C1998 05 30.40859 13 16 15.18 +23 17 46.1          17.3 R      422
         J98K17K  C1998 05 30.41032 13 16 15.39 +23 17 42.0          17.7 R      422
         J98K17K  C1998 05 30.57160 13 16 33.59 +23 10 30.5          17.4 V      402
         J98K17K  C1998 05 30.57299 13 16 33.73 +23 10 27.1                      402
         J98K17K  C1998 05 30.57598 13 16 34.07 +23 10 19.6                      402
         J98K17K  C1998 05 30.85459 13 17 07.14 +22 58 25.1                      108
         J98K17K  C1998 05 30.85752 13 17 07.38 +22 58 17.3                      108
         J98K17K  C1998 05 30.85961 13 17 07.63 +22 58 13.5          16.9 V      108
         J98K17K  C1998 05 30.91537 13 17 13.87 +22 55 51.0          17.4 V      609
         J98K17K  C1998 05 30.91683 13 17 13.97 +22 55 48.0                      609
         J98K17K  C1998 05 30.91819 13 17 14.11 +22 55 44.3                      609
         J98K17K  C1998 05 30.92139 13 17 14.46 +22 55 36.2                      609
         J98K17K  C1998 05 30.92443 13 17 14.54 +22 55 28.3          17.2 V      046
         J98K17K  C1998 05 30.92574 13 17 15.00 +22 55 23.6                      046
         J98K17K  C1998 05 30.92689 13 17 15.14 +22 55 21.0                      046
         J98K17K  C1998 05 30.92803 13 17 15.26 +22 55 17.3                      046
         J98K17K  C1998 05 30.92919 13 17 15.36 +22 55 14.8                      046
         J98K17K SC1998 05 30.99410 13 17 22.78 +22 52 29.0                      557
         J98K17K SC1998 05 30.99642 13 17 22.98 +22 52 23.6                      557
         J98K17K SC1998 05 30.99875 13 17 23.26 +22 52 16.2                      557
         J98K17K SC1998 05 31.00108 13 17 23.56 +22 52 10.3                      557
         J98K17K  C1998 05 31.20538 13 17 47.79 +22 43 41.1                      670
         J98K17K  C1998 05 31.21771 13 17 49.15 +22 43 09.7          16.9 V      670
         J98K17K  C1998 05 31.22760 13 17 50.25 +22 42 44.3                      670
         J98K17K  C1998 05 31.44040 13 18 15.22 +22 34 05.0          17.5 R      426
         J98K17K  C1998 05 31.44472 13 18 15.71 +22 33 54.0          17.3 R      426
         J98K17K  C1998 05 31.44984 13 18 16.25 +22 33 41.5          17.5 R      426
         J98K17K  C1998 05 31.45561 13 18 16.88 +22 33 27.0          17.6 R      426
    
    Observer details:
    046 Klet.  Observers J. Ticha, M. Tichy.  Measurer M. Tichy.  0.57-m f/5.2
        reflector + CCD.
    108 Montelupo.  Observers M. Tombelli, A. Boattini, G. Forti.  0.30-m f/5.7
        Schmidt-Cassegrain + CCD.
    402 Dynic Astronomical Observatory.  Observer A. Sugie.  0.60-m f/3.7 reflector
        + CCD.
    422 Loomberah.  Observer G. J. Garradd.  0.25-m f/4.1 reflector + CCD.
    426 Woomera.  Observer F. B. Zoltowski.  0.30-m f/3.3 Schmidt-Cassegrain + CCD.
    557 Ondrejov.  Observer P. Pravec.  0.65-m f/3.6 reflector + CCD.
    609 Osservatorio Polino.  Observers G. Iatteri, V. S. Casulli, V. Scirri,
        G. Bernabei, A. Boattini.  Measurers V. S. Casulli, V. Scirri, A. Boattini.
        0.40-m f/2.9 reflector + CCD.
    670 Camarillo.  Observer J. E. Rogers.  0.25-m Schmidt-Cassegrain + CCD.
    704 Lincoln Laboratory ETS, New Mexico.  Observers M. Blythe, F. Shelly,
        M. Bezpalko.  Measurers J. Stuart, H. Viggh.  1.0-m f/2.15 reflector + CCD.
    711 McDonald Observatory.  Observer J. G. Ries.  Measurers J. G. Ries,
        P. J. Shelus.  0.76-m reflector + CCD.
    734 Farpoint Observatory.  Observer G. Hug.  0.45-m reflector + CCD.
    
    Orbital elements:
    1998 KK17
    Epoch 1998 May 27.0 TT = JDT 2450960.5                  Williams
    M  50.20824              (2000.0)            P               Q
    n   0.57353379     Peri.  333.47519     -0.43047884     -0.89453827
    a   1.4347075      Node   141.68876     +0.85878186     -0.44696941
    e   0.5311656      Incl.   11.19614     +0.27781593     -0.00442945
    P   1.72           H   16.5           G   0.15
    From 52 observations 1998 May 29-31.
    
    Ephemeris:
    1998 KK17                a,e,i = 1.43, 0.53, 11                  q = 0.6726
    Date    TT    R. A. (2000) Decl.     Delta      r     Elong.  Phase     V
    1998 05 27    13 09.23   +25 50.2    0.500    1.305   114.9    44.8    17.3
    1998 06 01    13 19.31   +22 10.7    0.554    1.346   115.0    43.1    17.5
    1998 06 06    13 28.29   +18 56.3    0.612    1.386   114.5    41.8    17.8
    1998 06 11    13 36.54   +16 02.6    0.672    1.425   113.6    40.8    18.0
    1998 06 16    13 44.32   +13 25.7    0.735    1.462   112.3    40.0    18.2
    1998 06 21    13 51.80   +11 03.0    0.800    1.499   110.7    39.3    18.5
    1998 06 26    13 59.11   +08 52.0    0.867    1.535   108.9    38.8    18.7
    1998 07 01    14 06.33   +06 51.0    0.936    1.570   107.0    38.3    18.9
    1998 07 06    14 13.52   +04 58.8    1.006    1.604   104.9    37.8    19.1
    1998 07 11    14 20.72   +03 14.2    1.079    1.637   102.7    37.3    19.2
    1998 07 16    14 27.95   +01 36.4    1.152    1.668   100.4    36.8    19.4
    1998 07 21    14 35.23   +00 04.5    1.227    1.699    98.1    36.3    19.6
    1998 07 26    14 42.60   -01 22.0    1.302    1.729    95.6    35.8    19.7
    1998 07 31    14 50.05   -02 43.6    1.379    1.757    93.2    35.2    19.9
    1998 08 05    14 57.60   -04 00.7    1.456    1.785    90.7    34.6    20.0
    1998 08 10    15 05.25   -05 13.6    1.534    1.812    88.2    34.0    20.1
    1998 08 15    15 13.00   -06 22.6    1.612    1.838    85.7    33.3    20.3
    1998 08 20    15 20.85   -07 27.9    1.690    1.862    83.1    32.6    20.4
    1998 08 25    15 28.82   -08 29.8    1.768    1.886    80.5    31.9    20.5
    1998 08 30    15 36.89   -09 28.3    1.845    1.909    77.9    31.1    20.6
    1998 09 04    15 45.08   -10 23.6    1.922    1.931    75.3    30.3    20.7
    1998 09 09    15 53.37   -11 15.7    1.999    1.952    72.7    29.5    20.7
    1998 09 14    16 01.76   -12 04.8    2.074    1.972    70.0    28.6    20.8
    1998 09 19    16 10.26   -12 51.0    2.149    1.991    67.4    27.8    20.9
    1998 09 24    16 18.87   -13 34.3    2.222    2.010    64.7    26.8    21.0
    
    Gareth V. Williams           (C) Copyright 1998 MPC           M.P.E.C. 1998-K37
    

    Read MPEC 1998-K36 Read MPEC 1998-L01


    MPEC number:

    Enter an MPEC number in one of the following forms:

    • 1997-B01 (the full form)
    • J97B01 (the packed version of the full form)
    • B01 (the abbreviated form)